Location: Unspecified
(37.6100°N, 2.7800°W)
Time: 06:35:03
(UTC+00:00)

ISS - Visible Passes

Search period start: 20 October 2019 00:00
Search period end: 30 October 2019 00:00
Orbit: 411 x 421 km, 51.6° (Epoch: 20 October)

Date Brightness Start Highest point End Pass type
(mag) Time Alt. Az. Time Alt. Az. Time Alt. Az.
23 Oct -1.7 05:33:21 10° SSW 05:36:19 29° SE 05:39:17 10° ENE visible
24 Oct -0.9 04:45:41 10° S 04:47:52 16° SE 04:50:03 10° E visible
25 Oct -3.8 05:32:25 11° SW 05:35:41 84° NW 05:39:03 10° NE visible
26 Oct -3.1 04:46:39 46° SSE 04:47:05 50° SE 04:50:22 10° ENE visible
27 Oct -0.6 04:00:40 15° E 04:00:40 15° E 04:01:26 10° ENE visible
27 Oct -2.8 05:33:35 20° W 05:35:13 30° NNW 05:38:15 10° NNE visible
28 Oct -2.7 04:47:24 37° NNE 04:47:24 37° NNE 04:49:47 10° NE visible
29 Oct -0.4 04:01:05 11° NE 04:01:05 11° NE 04:01:11 10° NE visible
29 Oct -1.8 05:34:00 14° NW 05:34:56 16° NNW 05:37:04 10° NNE visible
